Change the Weather History Date:

Sunday, October 6, 2013

  Actual Average Record
Temperature  
Mean Temperature 42 °F 52 °F  
Max Temperature 51 °F 68 °F 93 °F (1975)
Min Temperature 33 °F 35 °F 6 °F (1952)
Degree Days  
Heating Degree Days 23 14  
Month to date heating degree days 91 76  
Since 1 July heating degree days 181 287  
Cooling Degree Days 0 0  
Month to date cooling degree days 0 0  
Year to date cooling degree days 917 710  
Moisture  
Dew Point 33 °F    
Average Humidity 70    
Maximum Humidity 79    
Minimum Humidity 61    
Precipitation  
Precipitation 0.00 in 0.04 in 1.10 in (1962)
Month to date precipitation 0.34 0.32  
Year to date precipitation 15.39 15.92  
Sea Level Pressure  
Sea Level Pressure 30.22 in    
Wind  
Wind Speed 11 mph (West)    
Max Wind Speed 24 mph    
Max Gust Speed 31 mph    
Visibility 10 miles    
Events      
T = Trace of Precipitation, MM = Missing Value Source: NWS Daily Summary

Daily Weather History Graph

Daily Weather History Graph

Search for Another Location

Airport or City:

Trip Planner

Search our weather history database for the weather conditions in past years. The results will help you decide how hot, cold, wet, or windy it might be!

Date:

Astronomy

Oct. 06, 2013 Rise Set
Actual Time 6:55 AM MDT 6:24 PM MDT
Civil Twilight 6:27 AM MDT 6:52 PM MDT
Nautical Twilight 5:54 AM MDT 7:25 PM MDT
Astronomical Twilight 5:21 AM MDT 7:58 PM MDT
Moon 8:45 AM MDT (10/6) 7:21 PM MDT (10/6)
Length of Visible Light 12h 25m
Length of Day
11h 28m
Waxing Crescent, 4% of the Moon is Illuminated
Oct 6
Waxing Crescent
Oct 11
First Quarter
Oct 18
Full
Oct 26
Last Quarter
Nov 3
New

Hourly Weather History & Observations

Time (MDT) Temp. Windchill Dew Point Humidity Pressure Visibility Wind Dir Wind Speed Gust Speed Precip Events Conditions
12:53 AM 34.0 °F 24.6 °F 27.0 °F 75% 30.23 in 10.0 mi NW 13.8 mph 20.7 mph N/A   Clear
1:53 AM 36.0 °F 26.0 °F 28.0 °F 73% 30.23 in 10.0 mi NW 17.3 mph 23.0 mph N/A   Clear
2:53 AM 36.0 °F 26.0 °F 28.0 °F 73% 30.22 in 10.0 mi WNW 17.3 mph 24.2 mph N/A   Clear
3:53 AM 35.1 °F 24.1 °F 28.0 °F 76% 30.22 in 10.0 mi WNW 19.6 mph - N/A   Clear
4:53 AM 37.0 °F 26.2 °F 28.0 °F 70% 30.21 in 10.0 mi WNW 21.9 mph 29.9 mph N/A   Clear
5:53 AM 35.1 °F 25.5 °F 28.9 °F 78% 30.22 in 10.0 mi WNW 15.0 mph - N/A   Clear
6:53 AM 36.0 °F 25.3 °F 28.9 °F 76% 30.22 in 10.0 mi WNW 19.6 mph 27.6 mph N/A   Clear
7:53 AM 37.9 °F 27.9 °F 28.9 °F 70% 30.22 in 10.0 mi WNW 19.6 mph - N/A   Clear
8:53 AM 39.0 °F 29.6 °F 30.9 °F 73% 30.23 in 10.0 mi West 18.4 mph - N/A   Clear
9:53 AM 39.9 °F 30.8 °F 30.9 °F 70% 30.24 in 10.0 mi West 18.4 mph - N/A   Clear
10:53 AM 41.0 °F 32.8 °F 32.0 °F 70% 30.25 in 10.0 mi West 16.1 mph - N/A   Clear
11:53 AM 42.1 °F 35.2 °F 33.1 °F 70% 30.25 in 10.0 mi West 12.7 mph - N/A   Clear
12:53 PM 44.1 °F 42.5 °F 35.1 °F 71% 30.25 in 10.0 mi Variable 3.5 mph - N/A   Clear
1:53 PM 48.0 °F - 36.0 °F 63% 30.22 in 10.0 mi Calm Calm - N/A   Clear
2:53 PM 51.1 °F - 39.0 °F 63% 30.22 in 10.0 mi Calm Calm - N/A   Clear
3:53 PM 50.0 °F - 39.9 °F 68% 30.22 in 10.0 mi WSW 6.9 mph - N/A   Clear
4:53 PM 50.0 °F - 41.0 °F 71% 30.21 in 10.0 mi SW 4.6 mph - N/A   Clear
5:53 PM 50.0 °F - 39.9 °F 68% 30.21 in 10.0 mi West 8.1 mph - N/A   Clear
6:53 PM 45.0 °F 42.6 °F 37.0 °F 74% 30.22 in 10.0 mi SW 4.6 mph - N/A   Clear
7:53 PM 43.0 °F 39.5 °F 35.1 °F 74% 30.21 in 10.0 mi SSW 5.8 mph - N/A   Clear
8:53 PM 42.1 °F 40.2 °F 36.0 °F 79% 30.20 in 10.0 mi SSW 3.5 mph - N/A   Clear
9:53 PM 39.0 °F 34.0 °F 34.0 °F 82% 30.21 in 10.0 mi SW 6.9 mph - N/A   Clear
10:53 PM 39.9 °F 33.9 °F 34.0 °F 79% 30.20 in 10.0 mi WSW 9.2 mph - N/A   Clear
11:53 PM 39.0 °F 34.0 °F 34.0 °F 82% 30.19 in 10.0 mi WSW 6.9 mph - N/A   Clear